Location: Newark
(35.6799°N, 139.7636°E)
Time: 00:07:24
(UTC+00:00)

A-11 Canister half - Visible Passes

Search period start: 09 December 2019 00:00
Search period end: 19 December 2019 00:00
Orbit: 1515 x 1685 km, 47.2° (Epoch: 08 December)

Date Brightness Start Highest point End Pass type
(mag) Time Alt. Az. Time Alt. Az. Time Alt. Az.
09 Dec 9.1 08:52:45 10° NW 09:02:55 82° NNE 09:12:20 13° ESE visible
09 Dec 10.2 10:58:34 10° WNW 11:07:22 35° SW 11:10:39 29° SSW visible
10 Dec 9.1 08:29:48 10° NW 08:39:56 79° NNE 08:50:09 10° ESE visible
10 Dec 10.2 10:35:30 10° WNW 10:44:29 37° SW 10:50:44 19° S visible
11 Dec 9.2 08:06:51 10° NW 08:16:58 76° NNE 08:27:10 10° ESE visible
11 Dec 10.1 10:12:27 10° WNW 10:21:36 40° SW 10:30:45 10° SSE visible
12 Dec 9.2 07:43:55 10° NW 07:53:58 72° NNE 08:04:09 10° ESE visible
12 Dec 10.1 09:49:24 10° WNW 09:58:42 43° SW 10:08:01 10° SSE visible
13 Dec 10.0 09:26:23 10° WNW 09:35:49 46° SW 09:45:17 10° SSE visible
14 Dec 10.0 09:03:23 10° WNW 09:12:55 49° SW 09:22:31 10° SSE visible
15 Dec 9.9 08:40:23 10° WNW 08:50:00 52° SW 08:59:43 10° SSE visible
15 Dec 11.5 10:51:03 10° WSW 10:53:28 11° WSW 10:55:52 10° SW visible
16 Dec 9.9 08:17:23 10° WNW 08:27:05 56° SW 08:36:54 10° SSE visible
16 Dec 11.5 10:26:53 10° W 10:30:37 13° WSW 10:34:21 10° SW visible
17 Dec 9.9 07:54:24 10° WNW 08:04:10 59° SW 08:14:04 10° SSE visible
17 Dec 11.5 10:03:09 10° W 10:07:47 14° WSW 10:12:26 10° SSW visible
18 Dec 11.5 09:39:36 10° W 09:44:56 16° WSW 09:50:18 10° SSW visible
